H1 CPF 1 NER 2018 8 29 9 7411 glonass102 H2 0606201 9102 29670 2018 8 29 0 0 0 2018 9 1 23 45 0 900 1 1 0 0 0 H9 10 0 58359 0.00000 0 -5891029.641 17966327.831 17183281.026 10 0 58359 900.00000 0 -7084390.262 19543265.791 14859895.064 10 0 58359 1800.00000 0 -7974208.885 20963075.941 12249371.455 10 0 58359 2700.00000 0 -8571763.094 22165346.377 9402217.284 10 0 58359 3600.00000 0 -8900296.018 23095176.064 6373464.058 10 0 58359 4500.00000 0 -8993784.141 23705482.484 3221619.255 10 0 58359 5400.00000 0 -8895264.204 23959004.221 7553.703 10 0 58359 6300.00000 0 -8654789.121 23829915.900 -3206655.362 10 0 58359 7200.00000 0 -8327098.075 23304988.609 -6358904.696 10 0 58359 8100.00000 0 -7969097.644 22384247.275 -9388247.745 10 0 58359 9000.00000 0 -7637258.639 21081096.726 -12236058.229 10 0 58359 9900.00000 0 -7385036.976 19421909.747 -14847153.286 10 0 58359 10800.00000 0 -7260426.304 17445092.225 -17170855.472 10 0 58359 11700.00000 0 -7303745.001 15199661.932 -19161973.753 10 0 58359 12600.00000 0 -7545751.008 12743397.451 -20781684.694 10 0 58359 13500.00000 0 -8006164.858 10140631.679 -21998296.718 10 0 58359 14400.00000 0 -8692664.836 7459779.169 -22787882.016 10 0 58359 15300.00000 0 -9600398.967 4770698.241 -23134762.867 10 0 58359 16200.00000 0 -10712037.281 2141996.053 -23031841.483 10 0 58359 17100.00000 0 -11998365.371 -361612.107 -22480765.258 10 0 58359 18000.00000 0 -13419397.441 -2681779.381 -21491922.136 10 0 58359 18900.00000 0 -14925964.899 -4768736.166 -20084264.081 10 0 58359 19800.00000 0 -16461715.972 -6583138.038 -18284959.974 10 0 58359 20700.00000 0 -17965443.614 -8097474.227 -16128882.813 10 0 58359 21600.00000 0 -19373644.234 -9296976.398 -13657939.768 10 0 58359 22500.00000 0 -20623198.966 -10179988.504 -10920257.174 10 0 58359 23400.00000 0 -21654063.063 -10757781.456 -7969236.214 10 0 58359 24300.00000 0 -22411847.910 -11053820.455 -4862498.176 10 0 58359 25200.00000 0 -22850184.191 -11102516.655 -1660741.087 10 0 58359 26100.00000 0 -22932763.872 -10947517.461 1573468.034 10 0 58359 27000.00000 0 -22634972.458 -10639610.079 4776939.451 10 0 58359 27900.00000 0 -21945040.848 -10234329.935 7887118.652 10 0 58359 28800.00000 0 -20864667.206 -9789378.310 10843328.766 10 0 58359 29700.00000 0 -19409082.482 -9361961.701 13587970.996 10 0 58359 30600.00000 0 -17606557.551 -9006168.279 16067657.887 10 0 58359 31500.00000 0 -15497374.121 -8770494.547 18234256.148 10 0 58359 32400.00000 0 -13132304.538 -8695628.110 20045818.406 10 0 58359 33300.00000 0 -10570666.152 -8812580.526 21467386.246 10 0 58359 34200.00000 0 -7878033.629 -9141248.489 22471650.012 10 0 58359 35100.00000 0 -5123706.075 -9689462.680 23039454.381 10 0 58359 36000.00000 0 -2378035.250 -10452562.483 23160142.085 10 0 58359 36900.00000 0 290274.040 -11413512.313 22831731.494 10 0 58359 37800.00000 0 2816780.225 -12543552.635 22060927.014 10 0 58359 38700.00000 0 5143731.246 -13803356.599 20862964.289 10 0 58359 39600.00000 0 7222202.646 -15144642.538 19261294.978 10 0 58359 40500.00000 0 9013861.876 -16512174.214 17287118.552 10 0 58359 41400.00000 0 10492288.974 -17846065.165 14978770.879 10 0 58359 42300.00000 0 11643801.952 -19084291.442 12380981.673 10 0 58359 43200.00000 0 12467755.672 -20165308.858 9544014.801 10 0 58359 44100.00000 0 12976304.264 -21030666.877 6522707.252 10 0 58359 45000.00000 0 13193638.839 -21627511.465 3375424.240 10 0 58359 45900.00000 0 13154733.468 -21910873.848 162949.193 10 0 58359 46800.00000 0 12903652.271 -21845650.680 -3052671.543 10 0 58359 47700.00000 0 12491488.198 -21408193.571 -6209308.494 10 0 58359 48600.00000 0 11974019.151 -20587441.620 -9245932.151 10 0 58359 49500.00000 0 11409178.668 -19385548.993 -12103778.020 10 0 58359 50400.00000 0 10854446.184 -17817979.992 -14727472.213 10 0 58359 51300.00000 0 10364265.409 -15913065.685 -17066096.892 10 0 58359 52200.00000 0 9987598.625 -13711037.990 -19074175.627 10 0 58359 53100.00000 0 9765719.474 -11262578.710 -20712559.802 10 0 58359 54000.00000 0 9730337.497 -8626940.887 -21949198.868 10 0 58359 54900.00000 0 9902134.372 -5869717.756 -22759778.949 10 0 58359 55800.00000 0 10289775.252 -3060349.629 -23128216.413 10 0 58359 56700.00000 0 10889439.088 -269470.281 -23046995.465 10 0 58359 57600.00000 0 11684890.489 2433798.184 -22517341.424 10 0 58359 58500.00000 0 12648092.968 4984489.998 -21549224.322 10 0 58359 59400.00000 0 13740340.531 7324269.775 -20161190.626 10 0 58359 60300.00000 0 14913862.305 9403632.134 -18380024.191 10 0 58359 61200.00000 0 16113834.308 11183733.792 -16240241.243 10 0 58359 62100.00000 0 17280714.349 12637780.207 -13783427.682 10 0 58359 63000.00000 0 18352801.465 13751907.339 -11057430.680 10 0 58359 63900.00000 0 19268910.802 14525520.415 -8115420.163 10 0 58359 64800.00000 0 19971049.103 14971075.064 -5014838.899 10 0 58359 65700.00000 0 20406975.331 15113310.301 -1816262.890 10 0 58359 66600.00000 0 20532535.521 14987966.789 1417803.783 10 0 58359 67500.00000 0 20313670.535 14640046.465 4624173.910 10 0 58359 68400.00000 0 19728009.643 14121689.652 7740235.041 10 0 58359 69300.00000 0 18765981.049 13489762.467 10705193.169 10 0 58359 70200.00000 0 17431391.700 12803259.720 13461275.674 10 0 58359 71100.00000 0 15741451.996 12120636.127 15954868.317 10 0 58359 72000.00000 0 13726245.253 11497181.073 18137562.851 10 0 58359 72900.00000 0 11427665.601 10982549.564 19967094.555 10 0 58359 73800.00000 0 8897870.642 10618554.294 21408151.821 10 0 58359 74700.00000 0 6197315.460 10437311.757 22433043.160 10 0 58359 75600.00000 0 3392451.592 10459819.377 23022210.452 10 0 58359 76500.00000 0 553187.855 10695021.700 23164580.634 10 0 58359 77400.00000 0 -2249780.981 11139402.637 22857751.390 10 0 58359 78300.00000 0 -4947667.283 11777118.437 22108009.659 10 0 58359 79200.00000 0 -7476195.038 12580663.526 20930184.758 10 0 58359 80100.00000 0 -9778009.802 13512039.382 19347340.817 10 0 58359 81000.00000 0 -11804796.916 14524376.160 17390315.803 10 0 58359 81900.00000 0 -13519023.262 15563938.504 15097116.819 10 0 58359 82800.00000 0 -14895233.391 16572431.626 12512183.607 10 0 58359 83700.00000 0 -15920849.256 17489511.766 9685534.206 10 0 58359 84600.00000 0 -16596442.974 18255397.100 6671808.415 10 0 58359 85500.00000 0 -16935473.284 18813471.198 3529226.529 10 0 58360 0.00000 0 -16963498.174 19112771.549 318482.042 10 0 58360 900.00000 0 -16716897.148 19110259.896 -2898412.259 10 0 58360 1800.00000 0 -16241156.746 18772781.295 -6059303.041 10 0 58360 2700.00000 0 -15588790.204 18078628.346 -9103080.181 10 0 58360 3600.00000 0 -14816977.680 17018646.807 -11970843.169 10 0 58360 4500.00000 0 -13985024.549 15596833.832 -14607029.128 10 0 58360 5400.00000 0 -13151743.214 13830402.659 -16960481.664 10 0 58360 6300.00000 0 -12372867.225 11749308.348 -18985440.550 10 0 58360 7200.00000 0 -11698605.587 9395251.515 -20642433.346 10 0 58360 8100.00000 0 -11171439.840 6820198.348 -21899051.628 10 0 58360 9000.00000 0 -10824256.897 4084475.251 -22730596.294 10 0 58360 9900.00000 0 -10678897.280 1254514.495 -23120578.382 10 0 58360 10800.00000 0 -10745181.481 -1599657.990 -23061064.374 10 0 58360 11700.00000 0 -11020457.617 -4407090.144 -22552857.514 10 0 58360 12600.00000 0 -11489691.885 -7098616.746 -21605509.604 10 0 58360 13500.00000 0 -12126100.543 -9609505.334 -20237160.943 10 0 58360 14400.00000 0 -12892299.055 -11881924.480 -18474209.380 10 0 58360 15300.00000 0 -13741921.734 -13867130.386 -16350813.055 10 0 58360 16200.00000 0 -14621644.608 -15527279.089 -13908235.012 10 0 58360 17100.00000 0 -15473526.269 -16836786.936 -11194041.452 10 0 58360 18000.00000 0 -16237567.059 -17783180.820 -8261169.038 10 0 58360 18900.00000 0 -16854376.794 -18367401.574 -5166879.875 10 0 58360 19800.00000 0 -17267835.910 -18603547.490 -1971625.684 10 0 58360 20700.00000 0 -17427634.727 -18518069.229 1262154.763 10 0 58360 21600.00000 0 -17291580.582 -18148451.541 4471279.251 10 0 58360 22500.00000 0 -16827572.642 -17541439.566 7593079.964 10 0 58360 23400.00000 0 -16015158.815 -16750887.432 10566648.389 10 0 58360 24300.00000 0 -14846607.659 -15835323.107 13334040.749 10 0 58360 25200.00000 0 -13327449.476 -14855335.450 15841418.614 10 0 58360 26100.00000 0 -11476464.127 -13870896.520 18040101.249 10 0 58360 27000.00000 0 -9325117.031 -12938734.177 19887508.796 10 0 58360 27900.00000 0 -6916468.421 -12109866.961 21347978.357 10 0 58360 28800.00000 0 -4303603.244 -11427405.260 22393438.137 10 0 58360 29700.00000 0 -1547648.850 -10924710.508 23003928.317 10 0 58360 30600.00000 0 1284535.710 -10623988.127 23167960.722 10 0 58360 31500.00000 0 4122901.906 -10535371.010 22882712.626 10 0 58360 32400.00000 0 6896879.983 -10656529.337 22154053.383 10 0 58360 33300.00000 0 9538063.432 -10972820.346 20996405.529 10 0 58360 34200.00000 0 11982799.901 -11457969.312 19432444.891 10 0 58360 35100.00000 0 14174583.509 -12075251.177 17492646.864 10 0 58360 36000.00000 0 16066152.068 -12779121.955 15214688.406 10 0 58360 36900.00000 0 17621205.169 -13517230.928 12642717.626 10 0 58360 37800.00000 0 18815674.726 -14232729.385 9826504.743 10 0 58360 38700.00000 0 19638497.917 -14866779.822 6820490.093 10 0 58360 39600.00000 0 20091862.477 -15361161.529 3682746.479 10 0 58360 40500.00000 0 20190915.801 -15660864.673 473874.541 10 0 58360 41400.00000 0 19962950.896 -15716565.413 -2744149.154 10 0 58360 42300.00000 0 19446103.345 -15486879.339 -5909150.525 10 0 58360 43200.00000 0 18687613.401 -14940299.354 -8959941.783 10 0 58360 44100.00000 0 17741724.932 -14056736.757 -11837489.232 10 0 58360 45000.00000 0 16667307.930 -12828600.180 -14486043.666 10 0 58360 45900.00000 0 15525302.773 -11261365.726 -16854212.582 10 0 58360 46800.00000 0 14376091.951 -9373612.126 -18895954.154 10 0 58360 47700.00000 0 13276908.393 -7196516.647 -20571474.033 10 0 58360 48600.00000 0 12279388.418 -4772829.496 -21848007.529 10 0 58360 49500.00000 0 11427371.826 -2155365.952 -22700471.557 10 0 58360 50400.00000 0 10755042.008 594924.246 -23111972.696 10 0 58360 51300.00000 0 10285485.256 3411232.968 -23074160.186 10 0 58360 52200.00000 0 10029731.424 6223423.023 -22587415.276 10 0 58360 53100.00000 0 9986318.319 8960707.108 -21660871.228 10 0 58360 54000.00000 0 10141400.292 11554365.811 -20312261.498 10 0 58360 54900.00000 0 10469398.561 13940391.457 -18567596.882 10 0 58360 55800.00000 0 10934167.595 16061946.755 -16460676.049 10 0 58360 56700.00000 0 11490629.501 17871534.254 -14032437.454 10 0 58360 57600.00000 0 12086807.777 19332784.272 -11330164.244 10 0 58360 58500.00000 0 12666173.995 20421784.611 -8406557.411 10 0 58360 59400.00000 0 13170206.774 21127894.904 -5318695.688 10 0 58360 60300.00000 0 13541052.663 21454010.500 -2126903.550 10 0 58360 61200.00000 0 13724173.603 21416264.635 1106448.678 10 0 58360 62100.00000 0 13670865.970 21043182.255 4318186.990 10 0 58360 63000.00000 0 13340541.719 20374322.770 7445591.391 10 0 58360 63900.00000 0 12702672.608 19458471.366 10427641.939 10 0 58360 64800.00000 0 11738313.451 18351458.060 13206226.556 10 0 58360 65700.00000 0 10441138.941 17113699.536 15727285.231 10 0 58360 66600.00000 0 8817950.111 15807570.326 17941867.037 10 0 58360 67500.00000 0 6888629.537 14494716.476 19807078.956 10 0 58360 68400.00000 0 4685548.262 13233426.416 21286908.409 10 0 58360 69300.00000 0 2252450.759 12076170.286 22352904.510 10 0 58360 70200.00000 0 -357133.920 11067410.720 22984706.556 10 0 58360 71100.00000 0 -3081887.208 10241775.623 23170411.605 10 0 58360 72000.00000 0 -5855018.229 9622667.423 22906776.395 10 0 58360 72900.00000 0 -8606806.532 9221364.337 22199252.058 10 0 58360 73800.00000 0 -11267265.242 9036648.287 21061853.202 10 0 58360 74700.00000 0 -13768815.202 9054972.102 19516865.704 10 0 58360 75600.00000 0 -16048861.095 9251156.349 17594400.286 10 0 58360 76500.00000 0 -18052165.077 9589584.566 15331801.298 10 0 58360 77400.00000 0 -19732922.047 10025845.427 12772922.453 10 0 58360 78300.00000 0 -21056453.202 10508752.425 9967283.234 10 0 58360 79200.00000 0 -22000450.131 10982656.493 6969121.522 10 0 58360 80100.00000 0 -22555719.867 11389955.230 3836359.681 10 0 58360 81000.00000 0 -22726401.653 11673694.559 629502.709 10 0 58360 81900.00000 0 -22529647.403 11780154.810 -2589511.898 10 0 58360 82800.00000 0 -21994779.556 11661313.898 -5758491.811 10 0 58360 83700.00000 0 -21161961.226 11277084.972 -8816173.976 10 0 58360 84600.00000 0 -20080433.339 10597234.978 -11703393.741 10 0 58360 85500.00000 0 -18806391.195 9602903.277 -14364217.598 10 0 58361 0.00000 0 -17400587.754 8287655.591 -16747018.669 10 0 58361 900.00000 0 -15925762.384 6658026.717 -18805475.123 10 0 58361 1800.00000 0 -14444001.017 4733528.085 -20499471.837 10 0 58361 2700.00000 0 -13014137.789 2546114.453 -21795888.660 10 0 58361 3600.00000 0 -11689305.400 139130.622 -22669258.987 10 0 58361 4500.00000 0 -10514737.571 -2434222.828 -23102285.026 10 0 58361 5400.00000 0 -9525915.831 -5112843.665 -23086198.513 10 0 58361 6300.00000 0 -8747139.552 -7830023.777 -22620958.099 10 0 58361 7200.00000 0 -8190580.817 -10515993.086 -21715277.596 10 0 58361 8100.00000 0 -7855865.600 -13100607.095 -20386482.409 10 0 58361 9000.00000 0 -7730200.721 -15516066.598 -18660194.820 10 0 58361 9900.00000 0 -7789042.895 -17699555.586 -16569852.349 10 0 58361 10800.00000 0 -7997282.835 -19595686.156 -14156067.011 10 0 58361 11700.00000 0 -8310894.966 -21158646.480 -11465836.945 10 0 58361 12600.00000 0 -8678982.772 -22353959.913 -8551625.464 10 0 58361 13500.00000 0 -9046132.158 -23159779.706 -5470325.884 10 0 58361 14400.00000 0 -9354971.281 -23567663.467 -2282133.393 10 0 58361 15300.00000 0 -9548825.921 -23582794.035 950652.170 10 0 58361 16200.00000 0 -9574354.975 -23223637.548 4164867.070 10 0 58361 17100.00000 0 -9384051.410 -22521054.086 7297741.231 10 0 58361 18000.00000 0 -8938500.002 -21516900.182 10288145.413 10 0 58361 18900.00000 0 -8208294.068 -20262184.605 13077801.401 10 0 58361 19800.00000 0 -7175528.514 -18814857.976 15612429.751 10 0 58361 20700.00000 0 -5834805.521 -17237332.240 17842811.407 10 0 58361 21600.00000 0 -4193710.421 -15593836.988 19725742.101 10 0 58361 22500.00000 0 -2272738.489 -13947725.723 21224861.255 10 0 58361 23400.00000 0 -104676.958 -12358846.338 22311340.294 10 0 58361 24300.00000 0 2266530.470 -10881086.201 22964418.695 10 0 58361 25200.00000 0 4787387.756 -9560193.753 23171779.475 10 0 58361 26100.00000 0 7396851.257 -8431965.989 22929759.192 10 0 58361 27000.00000 0 10028650.969 -7520875.019 22243390.790 10 0 58361 27900.00000 0 12613831.853 -6839188.037 21126280.652 10 0 58361 28800.00000 0 15083410.294 -6386614.279 19600324.111 10 0 58361 29700.00000 0 17371036.859 -6150490.592 17695266.333 10 0 58361 30600.00000 0 19415556.791 -6106495.164 15448117.881 10 0 58361 31500.00000 0 21163364.201 -6219857.503 12902436.599 10 0 58361 32400.00000 0 22570454.758 -6447012.611 10107489.451 10 0 58361 33300.00000 0 23604094.030 -6737629.522 7117309.750 10 0 58361 34200.00000 0 24244034.220 -7036929.232 3989667.012 10 0 58361 35100.00000 0 24483230.440 -7288195.467 784967.901 10 0 58361 36000.00000 0 24328027.825 -7435373.903 -2434892.044 10 0 58361 36900.00000 0 23797812.136 -7425651.821 -5607705.246 10 0 58361 37800.00000 0 22924138.297 -7211910.844 -8672136.385 10 0 58361 38700.00000 0 21749372.407 -6754950.331 -11568892.756 10 0 58361 39600.00000 0 20324902.684 -6025388.132 -14241859.281 10 0 58361 40500.00000 0 18708992.430 -5005158.241 -16639177.299 10 0 58361 41400.00000 0 16964362.922 -3688541.045 -18714247.034 10 0 58361 42300.00000 0 15155605.552 -2082680.827 -20426634.617 10 0 58361 43200.00000 0 13346529.837 -207565.907 -21742866.117 10 0 58361 44100.00000 0 11597557.055 1904531.151 -22637092.740 10 0 58361 45000.00000 0 9963267.965 4210133.461 -23091613.326 10 0 58361 45900.00000 0 8490207.162 6656118.463 -23097242.746 10 0 58361 46800.00000 0 7215036.565 9181693.587 -22653517.305 10 0 58361 47700.00000 0 6163116.506 11720709.203 -21768731.214 10 0 58361 48600.00000 0 5347575.348 14204214.363 -20459801.276 10 0 58361 49500.00000 0 4768908.285 16563149.749 -18751960.309 10 0 58361 50400.00000 0 4415123.724 18731065.360 -16678283.332 10 0 58361 51300.00000 0 4262432.297 20646748.592 -14279054.192 10 0 58361 52200.00000 0 4276450.052 22256651.204 -11600983.909 10 0 58361 53100.00000 0 4413865.017 23517011.467 -8696295.656 10 0 58361 54000.00000 0 4624495.760 24395580.378 -5621694.570 10 0 58361 54900.00000 0 4853653.177 24872877.549 -2437243.529 10 0 58361 55800.00000 0 5044703.104 24942922.521 794831.319 10 0 58361 56700.00000 0 5141718.326 24613410.111 4011379.800 10 0 58361 57600.00000 0 5092104.513 23905322.694 7149585.032 10 0 58361 58500.00000 0 4849085.843 22851996.855 10148211.651 10 0 58361 59400.00000 0 4373942.476 21497685.731 12948818.285 10 0 58361 60300.00000 0 3637903.187 19895680.053 15496908.781 10 0 58361 61200.00000 0 2623612.024 18106069.739 17742998.391 10 0 58361 62100.00000 0 1326106.709 16193242.791 19643573.693 10 0 58361 63000.00000 0 -246732.108 14223228.743 21161927.861 10 0 58361 63900.00000 0 -2074278.571 12260999.609 22268855.988 10 0 58361 64800.00000 0 -4123800.949 10367841.917 22943198.663 10 0 58361 65700.00000 0 -6351614.350 8598909.326 23172225.335 10 0 58361 66600.00000 0 -8704697.306 7001056.671 22951852.366 10 0 58361 67500.00000 0 -11122703.923 5611043.540 22286693.961 10 0 58361 68400.00000 0 -13540287.414 4454179.377 21189947.182 10 0 58361 69300.00000 0 -15889638.580 3543463.350 19683115.185 10 0 58361 70200.00000 0 -18103134.663 2879251.457 17795575.439 10 0 58361 71100.00000 0 -20115990.028 2449461.622 15564002.128 10 0 58361 72000.00000 0 -21868800.433 2230305.555 13031654.281 10 0 58361 72900.00000 0 -23309877.400 2187514.783 10247543.133 10 0 58361 73800.00000 0 -24397277.906 2278008.280 7265494.100 10 0 58361 74700.00000 0 -25100446.968 2451931.395 4143120.478 10 0 58361 75600.00000 0 -25401406.529 2654980.762 940727.306 10 0 58361 76500.00000 0 -25295442.270 2830918.314 -2279834.993 10 0 58361 77400.00000 0 -24791260.287 2924169.891 -5456346.575 10 0 58361 78300.00000 0 -23910606.993 2882400.252 -8527402.627 10 0 58361 79200.00000 0 -22687367.355 2658957.197 -11433584.942 10 0 58361 80100.00000 0 -21166177.805 2215082.480 -14118599.154 10 0 58361 81000.00000 0 -19400609.985 1521796.491 -16530356.757 10 0 58361 81900.00000 0 -17450999.156 561376.590 -18621981.728 10 0 58361 82800.00000 0 -15382005.912 -671634.586 -20352722.605 10 0 58361 83700.00000 0 -13260011.078 -2169935.591 -21688752.373 10 0 58361 84600.00000 0 -11150450.928 -3913511.180 -22603840.247 10 0 58361 85500.00000 0 -9115202.956 -5870217.423 -23079881.379 10 0 58362 0.00000 0 -7210130.786 -7996886.062 -23107272.972 10 0 58362 900.00000 0 -5482891.022 -10240905.832 -22685127.711 10 0 58362 1800.00000 0 -3971093.835 -12542216.900 -21821318.595 10 0 58362 2700.00000 0 -2700896.632 -14835638.627 -20532351.871 10 0 58362 3600.00000 0 -1686089.417 -17053434.088 -18843068.714 10 0 58362 4500.00000 0 -927713.040 -19128004.991 -16786179.298 10 0 58362 5400.00000 0 -414226.863 -20994603.759 -14401636.874 10 0 58362 6300.00000 0 -122219.804 -22593947.925 -11735862.895 10 0 58362 7200.00000 0 -17634.885 -23874625.253 -8840837.987 10 0 58362 8100.00000 0 -57454.942 -24795186.374 -5773076.782 10 0 58362 9000.00000 0 -191776.818 -25325834.772 -2592507.644 10 0 58362 9900.00000 0 -366184.075 -25449641.016 638719.053 10 0 58362 10800.00000 0 -524314.983 -25163228.901 3857468.663 10 0 58362 11700.00000 0 -610513.875 -24476904.073 7000879.364 10 0 58362 12600.00000 0 -572450.424 -23414220.163 10007611.445 10 0 58362 13500.00000 0 -363593.007 -22011002.046 12819062.083 10 0 58362 14400.00000 0 54570.879 -20313869.309 15380520.025 10 0 58362 15300.00000 0 710662.643 -18378324.527 17642236.312 10 0 58362 16200.00000 0 1621968.872 -16266489.235 19560389.690 10 0 58362 17100.00000 0 2793486.743 -14044584.892 21097928.184 10 0 58362 18000.00000 0 4217497.943 -11780266.204 22225271.411 10 0 58362 18900.00000 0 5873687.773 -9539919.347 22920861.649 10 0 58362 19800.00000 0 7729802.967 -7386037.947 23171555.068 10 0 58362 20700.00000 0 9742819.120 -5374785.389 22972847.832 10 0 58362 21600.00000 0 11860567.760 -3553843.131 22328935.135 10 0 58362 22500.00000 0 14023754.390 -1960631.941 21252604.207 10 0 58362 23400.00000 0 16168283.149 -620976.978 19764965.281 10 0 58362 24300.00000 0 18227791.778 451731.177 17895027.171 10 0 58362 25200.00000 0 20136292.439 1256848.012 15679126.518 10 0 58362 26100.00000 0 21830810.025 1806249.143 13160222.147 10 0 58362 27000.00000 0 23253910.100 2123578.935 10387067.948 10 0 58362 27900.00000 0 24356013.305 2243006.918 7413279.573 10 0 58362 28800.00000 0 25097401.769 2207545.051 4296311.982 10 0 58362 29700.00000 0 25449835.679 2066996.661 1096366.241 10 0 58362 30600.00000 0 25397713.845 1875622.757 -2124754.894 10 0 58362 31500.00000 0 24938730.496 1689622.850 -5304821.970 10 0 58362 32400.00000 0 24084000.919 1564535.097 -8382363.388 10 0 58362 33300.00000 0 22857649.991 1552664.014 -11297838.077 10 0 58362 34200.00000 0 21295879.489 1700643.106 -13994774.895 10 0 58362 35100.00000 0 19445551.276 2047234.583 -16420857.808 10 0 58362 36000.00000 0 17362343.294 2621458.985 -18528936.639 10 0 58362 36900.00000 0 15108553.001 3441134.374 -20277944.188 10 0 58362 37800.00000 0 12750637.568 4511888.287 -21633701.968 10 0 58362 38700.00000 0 10356591.353 5826686.497 -22569598.569 10 0 58362 39600.00000 0 7993268.457 7365901.427 -23067126.559 10 0 58362 40500.00000 0 5723760.956 9097920.845 -23116266.253 10 0 58362 41400.00000 0 3604941.717 10980274.874 -22715707.228 10 0 58362 42300.00000 0 1685274.651 12961237.388 -21872901.308 10 0 58362 43200.00000 0 2984.574 14981837.542 -20603943.880 10 0 58362 44100.00000 0 -1415335.634 16978199.222 -18933283.706 10 0 58362 45000.00000 0 -2555620.884 18884111.431 -16893264.932 10 0 58362 45900.00000 0 -3416693.921 20633721.965 -14523508.595 10 0 58362 46800.00000 0 -4010073.518 22164240.474 -11870144.586 10 0 58362 47700.00000 0 -4359238.435 23418535.684 -8984908.640 10 0 58362 48600.00000 0 -4498378.535 24347515.392 -5924122.246 10 0 58362 49500.00000 0 -4470686.905 24912186.673 -2747576.374 10 0 58362 50400.00000 0 -4326267.061 25085307.173 482657.421 10 0 58362 51300.00000 0 -4119746.386 24852556.095 3703463.155 10 0 58362 52200.00000 0 -3907699.915 24213174.354 6851937.221 10 0 58362 53100.00000 0 -3745996.737 23180046.608 9866638.655 10 0 58362 54000.00000 0 -3687184.520 21779222.373 12688806.137 10 0 58362 54900.00000 0 -3778025.502 20048897.732 15263516.095 10 0 58362 55800.00000 0 -4057290.155 18037902.553 17540757.904 10 0 58362 56700.00000 0 -4553902.886 15803759.039 19476404.761 10 0 58362 57600.00000 0 -5285518.317 13410395.331 21033061.521 10 0 58362 58500.00000 0 -6257587.615 10925611.882 22180773.966 10 0 58362 59400.00000 0 -7462952.956 8418407.818 22897587.321 10 0 58362 60300.00000 0 -8881985.638 5956279.277 23169945.302 10 0 58362 61200.00000 0 -10483260.286 3602601.925 22992924.227 10 0 58362 62100.00000 0 -12224735.392 1414205.125 22370300.101 10 0 58362 63000.00000 0 -14055389.615 -560763.667 21314449.588 10 0 58362 63900.00000 0 -15917244.794 -2284598.339 19846088.695 10 0 58362 64800.00000 0 -17747691.230 -3731347.665 17993855.721 10 0 58362 65700.00000 0 -19482018.872 -4887631.789 15793747.389 10 0 58362 66600.00000 0 -21056049.992 -5752930.934 13288419.509 10 0 58362 67500.00000 0 -22408765.187 -6339337.250 10526365.457 10 0 58362 68400.00000 0 -23484815.099 -6670782.445 7560987.706 10 0 58362 69300.00000 0 -24236814.898 -6781775.012 4449579.335 10 0 58362 70200.00000 0 -24627327.514 -6715700.674 1252233.849 10 0 58362 71100.00000 0 -24630454.171 -6522757.379 -1969297.187 10 0 58362 72000.00000 0 -24232966.530 -6257610.864 -5152778.137 10 0 58362 72900.00000 0 -23434933.333 -5976868.371 -8236673.858 10 0 58362 73800.00000 0 -22249814.769 -5736475.517 -11161323.468 10 0 58362 74700.00000 0 -20704019.374 -5589144.736 -13870081.824 10 0 58362 75600.00000 0 -18835940.139 -5581922.699 -16310407.814 10 0 58362 76500.00000 0 -16694507.699 -5753998.780 -18434879.161 10 0 58362 77400.00000 0 -14337318.442 -6134847.137 -20202114.482 10 0 58362 78300.00000 0 -11828412.935 -6742781.699 -21577584.811 10 0 58362 79200.00000 0 -9235794.747 -7583986.672 -22534298.484 10 0 58362 80100.00000 0 -6628790.992 -8652065.875 -23053345.199 10 0 58362 81000.00000 0 -4075362.954 -9928132.866 -23124287.492 10 0 58362 81900.00000 0 -1639477.838 -11381441.435 -22745390.326 10 0 58362 82800.00000 0 621348.951 -12970533.245 -21923682.409 10 0 58362 83700.00000 0 2658238.172 -14644857.466 -20674845.900 10 0 58362 84600.00000 0 4432765.662 -16346796.770 -19022934.503 10 0 58362 85500.00000 0 5918338.444 -18014016.142 -16999923.478 99